Time,TemperatureF,DewpointF,PressureIn,WindDirection,WindDirectionDegrees,WindSpeedMPH,WindSpeedGustMPH,Humidity,HourlyPrecipIn,Conditions,Clouds,dailyrainin,SoftwareType,DateUTC
2013-03-03 00:08:00,28.7,24.0,30.14,NW,304,4.0,4.0,83,0.00,,,0.00,weatherlink.com 1.10,2013-03-03 05:08:00,
2013-03-03 00:23:00,28.7,24.0,30.14,NNW,336,1.0,5.0,83,0.00,,,0.00,weatherlink.com 1.10,2013-03-03 05:23:00,
2013-03-03 00:38:00,28.5,24.0,30.14,SW,232,1.0,3.0,83,0.00,,,0.00,weatherlink.com 1.10,2013-03-03 05:38:00,
2013-03-03 00:53:00,28.5,24.0,30.14,WSW,244,1.0,6.0,84,0.00,,,0.00,weatherlink.com 1.10,2013-03-03 05:53:00,
2013-03-03 01:08:00,28.5,24.0,30.14,WNW,298,0.0,5.0,83,0.00,,,0.00,weatherlink.com 1.10,2013-03-03 06:08:00,
2013-03-03 01:23:00,28.4,24.0,30.14,WSW,247,0.0,3.0,84,0.00,,,0.00,weatherlink.com 1.10,2013-03-03 06:23:00,
2013-03-03 01:38:00,28.4,24.0,30.14,NNW,338,2.0,4.0,83,0.00,,,0.00,weatherlink.com 1.10,2013-03-03 06:38:00,
2013-03-03 01:53:00,28.3,24.0,30.14,NW,317,0.0,6.0,83,0.00,,,0.00,weatherlink.com 1.10,2013-03-03 06:53:00,
2013-03-03 02:08:00,28.3,24.0,30.14,NW,325,1.0,5.0,83,0.00,,,0.00,weatherlink.com 1.10,2013-03-03 07:08:00,
2013-03-03 02:23:00,28.1,24.0,30.14,NNW,329,3.0,7.0,85,0.00,,,0.00,weatherlink.com 1.10,2013-03-03 07:23:00,
2013-03-03 02:38:00,27.9,24.0,30.14,WNW,298,1.0,5.0,85,0.00,,,0.00,weatherlink.com 1.10,2013-03-03 07:38:00,
2013-03-03 02:53:00,27.8,24.0,30.13,NW,313,1.0,3.0,87,0.00,,,0.00,weatherlink.com 1.10,2013-03-03 07:53:00,
2013-03-03 03:08:00,27.5,24.0,30.13,WNW,294,0.0,3.0,88,0.00,,,0.00,weatherlink.com 1.10,2013-03-03 08:08:00,
2013-03-03 03:23:00,27.4,24.0,30.13,WNW,294,0.0,2.0,88,0.00,,,0.00,weatherlink.com 1.10,2013-03-03 08:23:00,
2013-03-03 03:38:00,27.3,24.0,30.12,WNW,294,0.0,3.0,88,0.00,,,0.00,weatherlink.com 1.10,2013-03-03 08:38:00,
2013-03-03 03:53:00,27.1,24.0,30.12,WNW,294,1.0,2.0,88,0.00,,,0.00,weatherlink.com 1.10,2013-03-03 08:53:00,
2013-03-03 04:08:00,27.0,24.0,30.12,WNW,294,0.0,3.0,87,0.00,,,0.00,weatherlink.com 1.10,2013-03-03 09:08:00,
2013-03-03 04:23:00,27.2,24.0,30.12,WSW,258,0.0,5.0,86,0.00,,,0.00,weatherlink.com 1.10,2013-03-03 09:23:00,
2013-03-03 04:38:00,27.1,23.0,30.12,WNW,293,2.0,5.0,85,0.00,,,0.00,weatherlink.com 1.10,2013-03-03 09:38:00,
2013-03-03 04:53:00,26.9,23.0,30.12,WSW,258,1.0,5.0,85,0.00,,,0.00,weatherlink.com 1.10,2013-03-03 09:53:00,
2013-03-03 05:08:00,26.7,23.0,30.12,West,259,0.0,2.0,85,0.00,,,0.00,weatherlink.com 1.10,2013-03-03 10:08:00,
2013-03-03 05:23:00,26.5,23.0,30.12,West,259,0.0,2.0,85,0.00,,,0.00,weatherlink.com 1.10,2013-03-03 10:23:00,
2013-03-03 05:38:00,26.1,22.0,30.12,West,273,0.0,2.0,85,0.00,,,0.00,weatherlink.com 1.10,2013-03-03 10:38:00,
2013-03-03 05:53:00,25.7,22.0,30.12,WNW,284,0.0,2.0,85,0.00,,,0.00,weatherlink.com 1.10,2013-03-03 10:53:00,
2013-03-03 06:08:00,25.0,21.0,30.12,WNW,284,0.0,0.0,86,0.00,,,0.00,weatherlink.com 1.10,2013-03-03 11:08:00,
2013-03-03 06:24:00,24.5,21.0,30.13,WNW,284,0.0,2.0,87,0.00,,,0.00,weatherlink.com 1.10,2013-03-03 11:24:00,
2013-03-03 06:39:00,23.8,21.0,30.13,WNW,300,1.0,3.0,88,0.00,,,0.00,weatherlink.com 1.10,2013-03-03 11:39:00,
2013-03-03 06:54:00,23.2,20.0,30.13,WNW,300,0.0,2.0,88,0.00,,,0.00,weatherlink.com 1.10,2013-03-03 11:54:00,
2013-03-03 07:09:00,22.5,20.0,30.13,WNW,300,0.0,0.0,89,0.00,,,0.00,weatherlink.com 1.10,2013-03-03 12:09:00,
2013-03-03 07:24:00,22.2,20.0,30.13,WNW,290,0.0,2.0,91,0.00,,,0.00,weatherlink.com 1.10,2013-03-03 12:24:00,
2013-03-03 07:39:00,22.4,20.0,30.14,West,267,1.0,2.0,91,0.00,,,0.00,weatherlink.com 1.10,2013-03-03 12:39:00,
2013-03-03 07:54:00,22.7,21.0,30.14,WSW,255,4.0,4.0,91,0.00,,,0.00,weatherlink.com 1.10,2013-03-03 12:54:00,
2013-03-03 08:09:00,23.6,21.0,30.15,West,263,3.0,4.0,91,0.00,,,0.00,weatherlink.com 1.10,2013-03-03 13:09:00,
2013-03-03 08:24:00,24.1,21.0,30.15,WSW,240,0.0,6.0,89,0.00,,,0.00,weatherlink.com 1.10,2013-03-03 13:24:00,
2013-03-03 08:39:00,24.8,22.0,30.16,WSW,240,6.0,8.0,89,0.00,,,0.00,weatherlink.com 1.10,2013-03-03 13:39:00,
2013-03-03 08:54:00,25.2,22.0,30.16,SW,228,3.0,8.0,88,0.00,,,0.00,weatherlink.com 1.10,2013-03-03 13:54:00,
2013-03-03 09:09:00,25.9,23.0,30.16,West,263,2.0,6.0,87,0.00,,,0.00,weatherlink.com 1.10,2013-03-03 14:09:00,
2013-03-03 09:24:00,26.3,22.0,30.16,WSW,246,3.0,8.0,85,0.00,,,0.00,weatherlink.com 1.10,2013-03-03 14:24:00,
2013-03-03 09:39:00,27.2,23.0,30.16,SW,222,5.0,8.0,84,0.00,,,0.00,weatherlink.com 1.10,2013-03-03 14:39:00,
2013-03-03 09:54:00,27.7,23.0,30.16,West,269,2.0,6.0,82,0.00,,,0.00,weatherlink.com 1.10,2013-03-03 14:54:00,
2013-03-03 10:09:00,29.0,24.0,30.16,SW,223,2.0,6.0,80,0.00,,,0.00,weatherlink.com 1.10,2013-03-03 15:09:00,
2013-03-03 10:24:00,29.9,23.0,30.15,West,279,2.0,7.0,75,0.00,,,0.00,weatherlink.com 1.10,2013-03-03 15:24:00,
2013-03-03 10:39:00,30.9,23.0,30.14,SW,228,4.0,7.0,73,0.00,,,0.00,weatherlink.com 1.10,2013-03-03 15:39:00,
2013-03-03 10:54:00,31.4,23.0,30.14,WSW,237,3.0,9.0,70,0.00,,,0.00,weatherlink.com 1.10,2013-03-03 15:54:00,
2013-03-03 11:09:00,31.2,21.0,30.14,West,268,1.0,7.0,67,0.00,,,0.00,weatherlink.com 1.10,2013-03-03 16:09:00,
2013-03-03 11:24:00,32.2,23.0,30.14,SW,231,4.0,7.0,68,0.00,,,0.00,weatherlink.com 1.10,2013-03-03 16:24:00,
2013-03-03 11:39:00,32.8,21.0,30.14,WSW,246,2.0,5.0,62,0.00,,,0.00,weatherlink.com 1.10,2013-03-03 16:39:00,
2013-03-03 11:54:00,32.5,21.0,30.14,WNW,286,1.0,7.0,63,0.00,,,0.00,weatherlink.com 1.10,2013-03-03 16:54:00,
2013-03-03 12:09:00,33.5,21.0,30.14,SW,229,4.0,9.0,60,0.00,,,0.00,weatherlink.com 1.10,2013-03-03 17:09:00,
2013-03-03 12:24:00,34.0,21.0,30.14,SSW,193,5.0,9.0,59,0.01,,,0.01,weatherlink.com 1.10,2013-03-03 17:24:00,
2013-03-03 12:39:00,33.4,20.0,30.13,WNW,285,0.0,7.0,59,0.01,,,0.01,weatherlink.com 1.10,2013-03-03 17:39:00,
2013-03-03 12:54:00,33.2,20.0,30.13,SW,230,6.0,10.0,59,0.01,,,0.01,weatherlink.com 1.10,2013-03-03 17:54:00,
2013-03-03 13:09:00,35.1,21.0,30.12,SSW,196,5.0,11.0,58,0.01,,,0.01,weatherlink.com 1.10,2013-03-03 18:09:00,
2013-03-03 13:24:00,35.5,21.0,30.12,WSW,240,0.0,11.0,57,0.00,,,0.01,weatherlink.com 1.10,2013-03-03 18:24:00,
2013-03-03 13:39:00,36.6,22.0,30.11,SSW,202,3.0,11.0,57,0.01,,,0.02,weatherlink.com 1.10,2013-03-03 18:39:00,
2013-03-03 13:54:00,36.5,21.0,30.11,West,262,3.0,10.0,54,0.01,,,0.02,weatherlink.com 1.10,2013-03-03 18:54:00,
2013-03-03 14:09:00,37.4,22.0,30.10,West,259,11.0,11.0,54,0.01,,,0.02,weatherlink.com 1.10,2013-03-03 19:09:00,
2013-03-03 14:25:00,37.5,21.0,30.10,West,263,4.0,8.0,52,0.01,,,0.02,weatherlink.com 1.10,2013-03-03 19:25:00,
2013-03-03 14:40:00,38.0,19.0,30.10,SW,230,3.0,8.0,47,0.00,,,0.02,weatherlink.com 1.10,2013-03-03 19:40:00,
2013-03-03 14:55:00,38.3,19.0,30.10,West,259,4.0,9.0,46,0.00,,,0.02,weatherlink.com 1.10,2013-03-03 19:55:00,
2013-03-03 15:10:00,38.1,18.0,30.09,WSW,247,0.0,10.0,45,0.00,,,0.02,weatherlink.com 1.10,2013-03-03 20:10:00,
2013-03-03 15:25:00,38.1,18.0,30.09,WSW,241,5.0,11.0,45,0.00,,,0.02,weatherlink.com 1.10,2013-03-03 20:25:00,
2013-03-03 15:40:00,38.6,18.0,30.09,WSW,253,8.0,13.0,43,0.00,,,0.02,weatherlink.com 1.10,2013-03-03 20:40:00,
2013-03-03 15:55:00,38.6,18.0,30.09,West,271,3.0,10.0,44,0.00,,,0.02,weatherlink.com 1.10,2013-03-03 20:55:00,
2013-03-03 16:10:00,38.9,19.0,30.09,SW,234,3.0,9.0,44,0.01,,,0.03,weatherlink.com 1.10,2013-03-03 21:10:00,
2013-03-03 16:25:00,38.7,17.0,30.09,WSW,249,8.0,10.0,41,0.01,,,0.03,weatherlink.com 1.10,2013-03-03 21:25:00,
2013-03-03 16:40:00,38.5,15.0,30.09,West,261,6.0,10.0,38,0.01,,,0.03,weatherlink.com 1.10,2013-03-03 21:40:00,
2013-03-03 16:55:00,39.2,14.0,30.09,WNW,285,0.0,10.0,36,0.01,,,0.03,weatherlink.com 1.10,2013-03-03 21:55:00,
2013-03-03 17:10:00,38.3,14.0,30.09,West,269,3.0,11.0,37,0.00,,,0.03,weatherlink.com 1.10,2013-03-03 22:10:00,
2013-03-03 17:25:00,39.0,14.0,30.09,West,271,2.0,5.0,36,0.00,,,0.03,weatherlink.com 1.10,2013-03-03 22:25:00,
2013-03-03 17:40:00,37.7,13.0,30.09,West,264,2.0,9.0,36,0.00,,,0.03,weatherlink.com 1.10,2013-03-03 22:40:00,
2013-03-03 17:55:00,36.7,13.0,30.09,WSW,254,5.0,10.0,37,0.00,,,0.03,weatherlink.com 1.10,2013-03-03 22:55:00,
2013-03-03 18:10:00,36.2,14.0,30.09,West,276,2.0,7.0,41,0.00,,,0.03,weatherlink.com 1.10,2013-03-03 23:10:00,
2013-03-03 18:25:00,35.2,14.0,30.09,West,264,1.0,7.0,41,0.00,,,0.03,weatherlink.com 1.10,2013-03-03 23:25:00,
2013-03-03 18:40:00,33.9,14.0,30.09,West,265,0.0,4.0,44,0.00,,,0.03,weatherlink.com 1.10,2013-03-03 23:40:00,
2013-03-03 18:55:00,33.2,15.0,30.10,West,276,0.0,3.0,48,0.00,,,0.03,weatherlink.com 1.10,2013-03-03 23:55:00,
2013-03-03 19:10:00,32.4,15.0,30.10,West,276,0.0,1.0,48,0.00,,,0.03,weatherlink.com 1.10,2013-03-04 00:10:00,
2013-03-03 19:25:00,31.1,16.0,30.11,West,276,0.0,0.0,53,0.00,,,0.03,weatherlink.com 1.10,2013-03-04 00:25:00,
2013-03-03 19:40:00,29.8,17.0,30.11,West,276,0.0,0.0,59,0.00,,,0.03,weatherlink.com 1.10,2013-03-04 00:40:00,
2013-03-03 19:55:00,28.7,18.0,30.11,West,276,0.0,1.0,64,0.00,,,0.03,weatherlink.com 1.10,2013-03-04 00:55:00,
2013-03-03 20:10:00,27.8,18.0,30.11,West,276,0.0,0.0,68,0.00,,,0.03,weatherlink.com 1.10,2013-03-04 01:10:00,
2013-03-03 20:25:00,27.1,18.0,30.11,West,276,0.0,0.0,68,0.00,,,0.03,weatherlink.com 1.10,2013-03-04 01:25:00,
2013-03-03 20:40:00,26.5,18.0,30.11,West,276,0.0,0.0,71,0.00,,,0.03,weatherlink.com 1.10,2013-03-04 01:40:00,
2013-03-03 20:55:00,26.0,17.0,30.11,West,276,0.0,0.0,70,0.00,,,0.03,weatherlink.com 1.10,2013-03-04 01:55:00,
2013-03-03 21:10:00,25.4,18.0,30.11,West,276,0.0,0.0,73,0.00,,,0.03,weatherlink.com 1.10,2013-03-04 02:10:00,
2013-03-03 21:25:00,24.8,18.0,30.12,West,276,0.0,0.0,75,0.00,,,0.03,weatherlink.com 1.10,2013-03-04 02:25:00,
2013-03-03 21:40:00,24.4,18.0,30.11,West,276,0.0,0.0,75,0.00,,,0.03,weatherlink.com 1.10,2013-03-04 02:40:00,
2013-03-03 21:55:00,24.0,17.0,30.11,West,276,0.0,0.0,76,0.00,,,0.03,weatherlink.com 1.10,2013-03-04 02:55:00,
2013-03-03 22:10:00,23.5,18.0,30.11,West,276,0.0,0.0,79,0.00,,,0.03,weatherlink.com 1.10,2013-03-04 03:10:00,
2013-03-03 22:25:00,23.0,17.0,30.11,West,276,0.0,0.0,79,0.00,,,0.03,weatherlink.com 1.10,2013-03-04 03:25:00,
2013-03-03 22:40:00,22.6,17.0,30.12,West,276,0.0,0.0,79,0.00,,,0.03,weatherlink.com 1.10,2013-03-04 03:40:00,
2013-03-03 22:55:00,22.2,18.0,30.11,West,276,0.0,0.0,82,0.00,,,0.03,weatherlink.com 1.10,2013-03-04 03:55:00,
2013-03-03 23:10:00,21.8,17.0,30.12,West,276,0.0,0.0,83,0.00,,,0.03,weatherlink.com 1.10,2013-03-04 04:10:00,
2013-03-03 23:25:00,21.5,17.0,30.12,West,276,0.0,0.0,83,0.00,,,0.03,weatherlink.com 1.10,2013-03-04 04:25:00,
2013-03-03 23:40:00,21.2,17.0,30.12,West,276,0.0,0.0,83,0.00,,,0.03,weatherlink.com 1.10,2013-03-04 04:40:00,
2013-03-03 23:55:00,20.9,17.0,30.12,West,276,0.0,0.0,85,0.00,,,0.03,weatherlink.com 1.10,2013-03-04 04:55:00,